Location: Bathurst
(33.4193°S, 149.5775°E)
Time: 10:32:40
(UTC+10:00)

Vanguard 1 Rocket - Pass Details

Date: 15 June 2021
Orbit: 650 x 4226 km, 34.3° (Epoch: 02 August)

Event Time Altitude Azimuth Distance (km) Brightness Sun altitude
Rises 15:01:17 0° 257° (WSW) 4,557 11.4 19.0°
Reaches altitude 10° 15:05:00 10° 260° (W) 3,111 10.7 18.5°
Maximum altitude 15:11:43 61° 338° (NNW) 917 8.2 17.5°
Drops below altitude 10° 15:16:14 10° 58° (ENE) 2,105 9.2 16.8°
Sets 15:18:19 0° 62° (ENE) 2,962 9.9 16.5°
